Tarbes, France

6:40 PM CEST on August 25, 2016 (GMT +0200)
Lourdes-Pyrenees

Weather History for LFBT - January, 2013

Change the Weather History Date:

Saturday, January 5, 2013

  Actual Average Record
Temperature  
Mean Temperature 36 °F -  
Max Temperature 42 °F 48 °F 51 °F (2015)
Min Temperature 30 °F 32 °F 28 °F (2015)
Degree Days  
Heating Degree Days 29    
Moisture  
Dew Point 37 °F    
Average Humidity 99    
Maximum Humidity 100    
Minimum Humidity 93    
Precipitation  
Precipitation 0.00 in - - ()
Sea Level Pressure  
Sea Level Pressure 30.57 in    
Wind  
Wind Speed 2 mph ()    
Max Wind Speed 5 mph    
Max Gust Speed -    
Visibility 0.5 miles    
Events Fog    
Averages and records for this station are not official NWS values.
T = Trace of Precipitation, MM = Missing Value Source: Averaged Metar Reports

Daily Weather History Graph

Daily Weather History Graph

Search for Another Location

Airport or City:

Trip Planner

Search our weather history database for the weather conditions in past years. The results will help you decide how hot, cold, wet, or windy it might be!

Date:

Astronomy

Jan. 05, 2013 Rise Set
Actual Time 8:31 AM CET 5:39 PM CET
Civil Twilight 7:59 AM CET 6:11 PM CET
Nautical Twilight 7:24 AM CET 6:47 PM CET
Astronomical Twilight 6:49 AM CET 7:21 PM CET
Moon 1:15 AM CET (1/5) 12:25 PM CET (1/5)
Length of Visible Light 10h 11m
Length of Day
9h 07m
Waning Gibbous, 47% of the Moon is Illuminated
Jan 5
Waning Gibbous
Jan 11
New
Jan 19
First Quarter
Jan 27
Full
Feb 3
Last Quarter

Hourly Weather History & Observations

Time (CET) Temp. Windchill Dew Point Humidity Pressure Visibility Wind Dir Wind Speed Gust Speed Precip Events Conditions
12:00 AM 39.2 °F - 39.2 °F 100% 30.63 in 0.1 mi Variable 2.3 mph - N/A Fog Fog
12:30 AM 39.2 °F - 39.2 °F 100% 30.63 in 0.2 mi Calm Calm - N/A Fog Fog
1:00 AM 38 °F - 38 °F 98% 30.67 in 0 mi SSW 2.3 mph - - Fog Heavy Fog
1:00 AM 37.4 °F - 37.4 °F 100% 30.63 in 0.2 mi SSW 2.3 mph - N/A Fog Fog
1:30 AM 37.4 °F - 37.4 °F 100% 30.63 in 0.1 mi Calm Calm - N/A Fog Fog
2:00 AM 37.4 °F 34.9 °F 37.4 °F 100% 30.60 in 0.1 mi Variable 3.5 mph - N/A Fog Fog
2:30 AM 37.4 °F - 35.6 °F 93% 30.60 in 0.1 mi Variable 1.2 mph - N/A Fog Fog
3:00 AM 35.6 °F - 35.6 °F 100% 30.60 in 0.1 mi Calm Calm - N/A Fog Fog
3:30 AM 35.6 °F - 33.8 °F 93% 30.60 in 0.1 mi Calm Calm - N/A Fog Fog
4:00 AM 33.8 °F - 33.8 °F 100% 30.60 in 0.1 mi SW 1.2 mph - N/A Fog Fog
4:30 AM 33.8 °F - 33.8 °F 100% 30.60 in 0.1 mi Calm Calm - N/A Fog Fog
5:00 AM 32.0 °F - 32.0 °F 100% 30.57 in 0.1 mi South 2.3 mph - N/A Fog Fog
5:30 AM 32.0 °F - 32.0 °F 100% 30.57 in 0.2 mi Calm Calm - N/A Fog Light Freezing Fog
6:00 AM 32.0 °F - 30.2 °F 93% 30.57 in 0.7 mi Calm Calm - N/A   Mist
6:30 AM 30.2 °F - 30.2 °F 100% 30.57 in 0.1 mi Calm Calm - N/A Fog Light Freezing Fog
7:00 AM 30 °F - 30 °F 99% 30.64 in 0 mi Calm Calm - - Fog Heavy Fog
7:00 AM 30.2 °F - 30.2 °F 100% 30.57 in 0.1 mi Calm Calm - N/A Fog Light Freezing Fog
7:30 AM 30.2 °F - 30.2 °F 100% 30.57 in 0.1 mi Calm Calm - N/A Fog Light Freezing Fog
8:00 AM 32.0 °F - 32.0 °F 100% 30.57 in 0.1 mi Calm Calm - N/A Fog Light Freezing Fog
8:30 AM 30.2 °F - 30.2 °F 100% 30.57 in 0.1 mi Calm Calm - N/A Fog Light Freezing Fog
9:00 AM 30.2 °F - 30.2 °F 100% 30.57 in - Calm Calm - N/A   Mist
9:30 AM 32.0 °F - 32.0 °F 100% 30.57 in - Calm Calm - N/A   Mist
10:00 AM 33.8 °F - 33.8 °F 100% 30.57 in 6.2 mi Calm Calm - N/A   Unknown
10:30 AM 35.6 °F - 35.6 °F 100% 30.57 in 6.2 mi Variable 2.3 mph - N/A   Unknown
11:00 AM 37.4 °F - 35.6 °F 93% 30.57 in 3.1 mi Variable 2.3 mph - N/A   Mostly Cloudy
11:30 AM 37.4 °F 34.9 °F 35.6 °F 93% 30.57 in 0.3 mi NNE 3.5 mph - N/A Fog Fog
12:00 PM 37.4 °F - 37.4 °F 100% 30.57 in 0.3 mi Variable 2.3 mph - N/A Fog Fog
12:30 PM 39.2 °F 37.0 °F 39.2 °F 100% 30.57 in 0.2 mi NNE 3.5 mph - N/A Fog Fog
1:00 PM 40 °F - 39 °F 96% 30.61 in 0 mi North 2.3 mph - - Fog Heavy Fog
1:00 PM 39.2 °F - 39.2 °F 100% 30.54 in 0.2 mi Variable 2.3 mph - N/A Fog Fog
1:30 PM 41.0 °F 39.0 °F 41.0 °F 100% 30.54 in 0.2 mi Variable 3.5 mph - N/A Fog Fog
2:00 PM 41.0 °F 39.0 °F 41.0 °F 100% 30.54 in 0.2 mi NNE 3.5 mph - N/A Fog Fog
2:30 PM 41.0 °F 38.0 °F 39.2 °F 93% 30.54 in 0.2 mi NE 4.6 mph - N/A Fog Fog
3:00 PM 41.0 °F 39.0 °F 41.0 °F 100% 30.54 in 0.1 mi Variable 3.5 mph - N/A Fog Fog
3:30 PM 41.0 °F - 41.0 °F 100% 30.54 in 0.1 mi Variable 2.3 mph - N/A Fog Fog
4:00 PM 41.0 °F - 41.0 °F 100% 30.54 in 0.1 mi Variable 2.3 mph - N/A Fog Fog
4:30 PM 41.0 °F - 41.0 °F 100% 30.54 in 0.1 mi NE 2.3 mph - N/A Fog Fog
5:00 PM 41.0 °F - 41.0 °F 100% 30.54 in 0.1 mi Variable 1.2 mph - N/A Fog Fog
5:30 PM 41.0 °F 38.0 °F 41.0 °F 100% 30.54 in - WNW 4.6 mph - N/A Fog Fog
6:00 PM 41.0 °F 38.0 °F 39.2 °F 93% 30.54 in 0.2 mi SW 4.6 mph - N/A Fog Fog
6:30 PM 39.2 °F 35.9 °F 39.2 °F 100% 30.54 in 0.2 mi West 4.6 mph - N/A Fog Fog
7:00 PM 39 °F - 39 °F 98% 30.61 in 0 mi NW 3.5 mph - - Fog Heavy Fog
7:00 PM 39.2 °F 37.0 °F 39.2 °F 100% 30.54 in 0.1 mi NW 3.5 mph - N/A Fog Fog
7:30 PM 39.2 °F - 39.2 °F 100% 30.54 in 0.2 mi West 2.3 mph - N/A Fog Fog
8:00 PM 39.2 °F - 39.2 °F 100% 30.54 in 0.1 mi Calm Calm - N/A Fog Fog
8:30 PM 39.2 °F 37.0 °F 37.4 °F 93% 30.54 in 0.1 mi Variable 3.5 mph - N/A Fog Fog
9:00 PM 37.4 °F 34.9 °F 37.4 °F 100% 30.54 in 0.1 mi North 3.5 mph - N/A Fog Fog
9:30 PM 37.4 °F - 37.4 °F 100% 30.54 in 0.1 mi Variable 1.2 mph - N/A Fog Fog
10:00 PM 37.4 °F - 37.4 °F 100% 30.54 in 0.2 mi Variable 2.3 mph - N/A Fog Fog
10:30 PM 37.4 °F 34.9 °F 37.4 °F 100% 30.54 in 0.1 mi NNE 3.5 mph - N/A Fog Fog
11:00 PM 37.4 °F - 37.4 °F 100% 30.54 in 0.2 mi Variable 2.3 mph - N/A Fog Fog
11:30 PM 37.4 °F - 37.4 °F 100% 30.54 in 0.2 mi Variable 2.3 mph - N/A Fog Fog